BREEZE-KM DEB

基本信息
目录编号:
41722
目录名称:
BREEZE-KM DEB
国际标识:
2015-020K
轨道中心:
EARTH
物体状态:
在轨
发射日期:
2015-03-31 UTC
轨道信息
数据来源: 国际轨道数据
星历时间: 2026-07-06T05:07:58+0800
半长轴: 7757.886km
偏心率: 0.0179993
轨道倾角: 82.488°
近地点辐角: 168.095°
升交点赤经: 244.566°
平近点角: 192.449°
近地点: 1240.112km
远地点: 1519.386km
周期: 113.338分钟
每日圈数: 12.705382
详细信息
发射场:
PKMTR
轨道高度:
LEO
数据来源:
AOE Integration Group
参考系:
TEME
时间系统:
UTC
历元类型:
SGP4
2D轨道图
3D轨道图
轨道高度分析图
轨道倾角分析图
轨道综合分析图
查看轨道综合分析图